Temperature
28 29 29 29 29 29 29 29 28 26 25 25 23 21 20 19 19 18 18 17 17 17 16 15 16 16 16 16 16 16 17 17 17 16 16 16 16 15 15 15 15 15 15 15
29 29 29 29 29 29 29 29 28 25 24 25 23 22 21 20 19 19 18 18 18 17 17 16 16 16 16 16 16 16 16 16 16 16 16 16 15 15 15 15 15 15 15 15
29 29 29 29 29 29 29 29 28 26 24 25 24 23 22 21 20 19 19 18 18 17 17 17 16 16 16 16 16 16 16 16 16 16 15 15 15 15 15 15 15 15 15 15
29 29 28 29 29 29 28 29 28 26 25 26 25 24 23 22 22 21 20 19 18 18 17 17 17 16 16 16 15 15 15 15 15 15 15 14 14 14 14 14 14 14 14 15
29 28 28 28 28 28 28 28 28 27 27 26 25 25 23 23 22 22 21 19 19 18 17 17 17 16 16 15 15 15 15 15 15 14 14 14 14 14 14 14 14 13 14 14
28 28 28 28 28 28 28 27 27 27 28 26 26 25 23 23 22 22 21 19 18 18 17 17 16 16 15 15 15 14 14 14 14 13 13 13 13 13 13 13 13 13 13 13
28 28 28 28 29 28 28 27 26 26 26 25 25 25 22 22 22 22 21 20 19 18 17 17 16 16 15 15 14 14 13 13 13 13 12 12 12 12 12 12 13 13 13 13
27 27 27 28 27 27 27 27 26 25 25 25 25 24 22 21 21 20 20 19 19 18 18 17 16 15 15 14 13 13 12 12 12 12 12 11 11 12 12 12 12 12 12 12
27 27 27 27 27 27 27 27 27 27 26 25 24 23 21 20 21 20 20 19 19 18 17 17 16 15 14 14 13 12 12 11 11 11 11 11 11 11 11 11 11 11 11 11
27 26 27 27 28 26 27 26 27 26 24 24 25 24 22 21 21 21 20 19 18 17 17 16 15 15 14 13 13 12 11 11 10 10 10 10 10 10 10 10 10 10 10 10
27 26 27 27 25 25 26 26 26 26 25 24 24 24 23 22 21 21 20 19 18 17 16 15 15 14 13 13 12 11 11 10 10 9 9 9 9 9 9 9 9 9 9 9
26 27 26 25 25 26 26 25 25 25 24 24 24 24 22 21 20 19 19 18 17 16 15 15 14 13 12 12 11 11 10 10 9 9 8 8 8 8 8 8 8 8 8 8
26 26 25 25 25 25 25 24 25 24 24 24 24 24 21 21 20 19 18 17 16 15 15 14 13 12 12 11 10 10 9 9 8 8 8 7 7 7 7 7 7 7 7 7
25 26 25 25 25 25 24 24 24 24 24 23 23 23 23 22 21 19 18 17 16 15 14 13 12 11 11 10 9 9 8 8 8 7 7 7 7 7 6 6 6 6 6 7
26 26 25 25 25 25 24 24 23 23 23 23 22 22 22 21 20 18 17 16 15 14 13 12 12 11 10 9 9 8 8 7 7 7 7 7 6 6 6 6 6 6 6 6
25 25 25 24 24 24 23 23 23 23 22 22 22 22 22 20 18 18 17 16 15 14 13 12 11 10 10 9 8 8 7 7 7 6 6 6 6 6 6 6 6 6 6 6
26 25 24 25 24 23 23 23 23 23 23 22 22 22 21 20 18 17 16 15 14 13 12 11 10 10 9 9 8 8 7 7 6 6 6 6 6 6 6 5 5 5 5 5
25 24 24 25 23 22 24 24 23 22 22 22 22 22 20 19 17 16 15 14 13 12 11 10 10 9 9 8 8 7 7 6 6 6 6 6 5 5 5 5 5 5 5 5
24 24 25 25 24 25 24 23 23 22 22 23 22 21 19 18 17 18 15 13 12 11 10 10 9 9 8 8 7 7 6 6 6 6 6 5 5 5 5 5 5 5 4 4
23 23 24 24 23 23 24 23 21 21 21 22 20 19 18 17 18 18 15 13 12 10 10 9 9 8 8 8 7 6 6 6 6 6 5 5 5 5 5 5 5 5 4 4
24 24 24 24 23 25 24 22 21 21 22 21 19 18 17 17 16 15 13 12 11 10 9 9 8 8 8 7 7 6 6 6 6 5 5 5 5 5 5 5 5 5 4 4
25 25 24 24 23 24 22 22 22 22 21 19 18 17 16 15 15 14 12 11 10 10 9 9 8 8 8 7 7 6 6 6 6 5 5 5 5 5 5 5 5 5 5 4
25 25 25 24 24 23 22 22 22 20 20 19 18 17 16 15 14 13 12 11 10 9 9 8 8 8 8 7 7 6 6 6 6 5 5 5 5 5 5 5 5 5 5 5
25 22 23 23 24 23 22 21 20 19 18 18 17 16 15 14 14 13 12 11 10 9 9 8 8 8 7 7 7 6 6 6 6 6 5 5 6 6 5 5 5 5 5 5
25 23 23 23 24 23 22 21 20 19 18 17 16 15 14 13 13 12 11 10 10 9 8 8 8 7 7 7 7 6 6 6 6 6 6 6 6 6 5 6 5 5 5 5
25 24 23 24 24 23 23 22 20 19 18 17 16 15 14 13 12 12 11 10 9 9 8 8 7 7 7 7 7 6 6 6 6 6 6 6 6 6 6 6 6 6 5 5
Wind_Speed
4 6 2 2 3 3 2 2 3 8 6 7 11 10 8 7 7 8 7 8 8 8 8 6 6 5 5 6 6 7 8 9 8 8 9 9 9 7 7 7 8 8 7 6
6 3 2 2 2 3 4 4 5 8 6 5 10 10 8 6 7 6 7 7 7 7 6 6 5 5 6 7 7 7 8 9 9 8 8 8 9 8 7 7 7 9 9 7
3 2 2 3 3 4 5 4 3 7 8 8 10 9 8 7 7 6 6 6 5 5 4 4 4 5 6 7 8 8 9 9 9 9 8 9 8 7 7 8 7 9 10 8
2 1 3 5 3 5 3 1 3 10 10 6 9 4 8 8 7 6 5 4 4 3 2 3 4 6 7 8 8 9 9 10 9 10 9 11 9 9 8 7 7 8 8 8
1 2 4 4 3 5 2 1 4 9 8 5 7 5 8 7 6 6 4 3 1 0 2 4 6 7 8 9 10 10 10 11 11 11 10 11 11 10 9 8 8 7 6 6
2 1 2 4 2 1 2 3 5 8 9 7 4 5 7 5 3 4 4 3 2 3 5 6 8 9 10 10 11 11 11 12 12 12 12 12 13 12 12 11 10 9 7 5
3 4 3 3 3 3 4 7 6 7 7 3 4 3 5 5 2 2 3 3 4 5 7 9 11 12 12 12 12 13 13 13 14 14 13 13 13 14 14 13 12 10 10 8
1 3 6 6 5 3 3 7 7 8 6 1 4 2 6 3 1 2 3 4 5 7 9 11 12 13 12 13 13 14 14 15 15 15 14 14 14 13 13 13 13 13 12 11
5 2 4 6 6 4 2 3 5 7 6 6 2 6 6 4 2 3 4 6 7 8 11 13 14 13 12 14 14 15 15 15 16 16 16 15 15 14 15 16 15 15 13 12
5 1 3 1 0 7 5 3 4 5 6 6 3 3 3 3 2 3 5 7 8 11 13 14 14 13 13 15 16 16 16 16 17 17 16 15 16 16 16 16 16 16 16 15
4 2 2 3 6 7 4 3 4 4 5 7 7 3 5 3 4 6 7 8 11 13 15 15 14 14 15 17 17 17 17 17 17 17 16 17 16 17 17 16 16 16 16 16
4 3 2 5 5 4 6 6 5 5 4 5 8 3 7 2 4 6 9 11 13 15 15 15 15 16 17 18 18 18 18 18 18 17 17 18 17 18 18 18 17 17 17 16
2 2 3 6 6 3 3 5 4 3 3 5 8 6 4 3 6 8 10 13 15 16 16 15 16 17 17 18 18 18 19 19 18 18 18 18 18 18 18 18 18 17 17 17
2 3 5 5 5 2 1 2 3 5 6 8 8 12 10 9 9 10 13 15 16 16 15 16 17 17 17 18 18 18 18 18 18 18 18 18 18 18 18 18 18 18 18 18
2 2 2 3 1 2 2 1 1 4 6 8 11 13 13 11 9 11 14 16 16 16 16 17 18 18 18 18 18 18 18 17 17 18 19 19 19 19 19 18 18 18 18 18
1 1 2 3 2 4 6 5 4 4 6 8 11 12 7 7 9 13 15 16 16 16 17 18 19 19 19 18 18 18 18 18 18 18 19 19 19 19 19 19 19 18 18 18
2 2 4 5 2 7 8 8 7 4 6 8 11 13 11 12 14 15 16 15 15 16 18 19 19 19 18 18 18 18 18 18 18 18 19 19 19 20 20 20 20 19 19 18
4 4 5 6 4 7 3 5 2 5 9 8 10 13 12 12 14 15 13 12 15 17 18 18 18 19 18 18 18 17 17 17 18 18 18 19 19 20 20 20 20 19 17 17
4 5 6 7 10 10 3 5 3 6 10 5 8 11 11 12 15 10 3 9 15 17 17 17 18 18 18 17 17 17 17 17 18 18 18 19 19 20 20 20 19 18 17 16
5 6 8 8 10 10 1 8 3 4 5 1 6 9 11 12 12 10 12 15 16 16 16 16 17 18 17 16 16 17 18 18 18 18 19 19 19 19 19 19 18 16 15 15
7 7 10 11 11 7 7 9 5 6 8 5 6 8 9 10 11 14 16 16 15 16 17 17 17 16 16 16 16 16 17 17 17 18 18 19 18 18 18 17 15 15 14 13
8 7 7 7 7 4 11 8 4 6 4 4 6 6 8 10 13 14 14 15 16 16 17 17 16 17 16 15 15 16 17 17 17 17 18 18 18 17 15 16 15 14 12 11
6 6 5 5 6 2 9 7 4 4 6 5 6 6 7 10 12 14 14 15 15 16 16 16 17 17 17 15 15 16 17 17 17 17 17 17 17 16 14 14 14 12 9 8
5 2 6 8 9 6 9 10 9 8 7 6 5 6 7 10 12 13 13 14 15 15 16 16 17 17 17 17 16 16 16 16 16 16 16 15 15 15 13 11 10 9 8 7
10 5 8 11 12 8 10 11 10 8 8 7 5 5 7 9 11 13 13 14 14 15 15 15 16 17 17 17 16 16 15 15 15 16 14 14 13 13 12 11 9 8 7 6
10 11 12 11 7 7 6 6 7 8 8 8 7 6 7 8 10 12 12 13 14 15 16 16 16 17 17 17 16 16 15 14 14 14 13 12 11 11 11 10 8 2 3 3
Wind_Direction
220 231 211 24 338 338 299 259 117 108 111 95 105 102 92 88 89 90 90 88 86 83 83 78 71 63 58 44 32 23 17 16 7 4 354 348 341 335 337 341 348 340 329 308
215 199 39 338 287 241 233 223 140 123 133 130 123 110 105 97 93 93 99 99 97 94 87 76 66 57 44 34 21 13 10 6 360 1 346 339 336 331 337 342 349 350 343 336
285 46 355 280 254 239 232 258 180 157 152 155 145 133 133 124 120 116 112 108 99 89 77 63 46 33 23 16 5 359 352 347 349 343 337 340 334 332 347 350 355 353 348 349
269 4 301 280 263 277 249 320 204 169 181 186 215 185 149 147 143 137 134 131 114 94 60 27 5 359 355 350 346 344 339 335 332 325 331 333 328 330 336 334 342 342 348 352
307 334 304 286 333 313 8 17 201 195 220 204 210 228 147 165 168 160 158 156 146 343 334 335 335 335 335 335 336 336 334 329 325 319 311 306 308 315 316 320 322 322 333 341
2 14 337 341 348 26 134 161 177 208 228 228 197 240 153 162 164 166 182 205 253 295 309 317 321 324 326 327 329 331 331 328 324 317 309 300 300 300 302 302 306 305 309 310
113 99 63 349 261 178 239 255 251 234 230 212 156 220 109 111 123 211 233 244 270 291 303 313 319 323 323 324 326 326 326 323 321 315 309 302 297 294 287 287 291 293 294 292
339 80 43 20 353 321 315 294 296 300 304 294 176 162 113 113 144 249 264 275 282 296 312 318 320 319 319 321 323 324 324 322 319 315 311 305 298 292 291 292 294 290 286 286
353 50 72 45 35 337 313 340 335 294 293 290 167 128 138 162 207 253 270 281 291 306 315 319 320 317 319 320 322 322 322 319 318 316 314 303 299 297 296 295 286 283 281 280
351 308 91 75 134 54 29 354 308 313 319 307 285 208 154 151 311 296 292 298 306 313 316 320 321 318 319 318 319 320 318 317 315 313 313 311 310 304 298 292 291 289 286 281
346 300 114 106 41 25 28 31 351 336 337 319 319 22 88 20 334 316 309 311 317 319 321 322 321 320 319 319 320 320 319 317 316 316 315 311 307 305 301 295 289 286 283 281
1 319 95 97 90 50 52 26 358 335 341 318 309 11 109 9 318 304 308 316 320 321 320 320 320 320 320 320 321 319 318 315 315 315 312 309 306 303 300 298 297 293 286 279
14 307 204 171 167 144 66 50 28 348 307 316 314 345 108 295 291 293 305 317 321 321 320 318 318 319 318 319 318 316 314 314 314 313 310 308 307 306 304 302 298 294 289 281
323 19 350 10 25 15 120 68 15 327 330 323 325 323 327 319 303 304 315 320 319 318 317 316 317 317 317 316 315 313 313 314 312 311 309 306 305 305 304 301 299 294 290 285
297 48 37 31 11 287 269 236 313 343 340 322 325 319 324 334 323 315 315 317 317 316 317 318 317 317 316 315 315 314 313 312 312 310 307 307 307 306 303 300 298 295 291 286
337 323 261 231 224 259 259 240 247 289 312 313 313 320 345 325 307 311 317 320 317 317 318 318 317 317 316 316 315 314 312 312 311 308 307 308 307 306 304 302 299 295 291 287
216 244 281 294 224 268 260 225 228 286 319 309 313 324 328 311 314 318 318 317 316 318 318 317 317 316 315 314 314 313 312 312 311 308 307 307 307 306 305 303 302 298 294 290
231 247 273 295 271 277 52 121 211 287 304 298 297 309 316 314 314 304 299 307 316 317 317 316 316 315 315 315 315 314 313 312 310 308 308 309 308 306 305 303 301 298 296 291
232 237 275 284 287 291 165 179 220 291 306 304 307 312 314 318 309 311 2 319 315 315 315 314 314 314 315 315 317 316 313 312 310 309 311 310 310 307 305 304 301 299 296 291
191 227 258 273 291 297 63 139 146 276 284 346 303 307 315 318 315 335 344 326 320 318 317 316 315 314 315 319 320 316 313 313 311 312 311 310 309 307 304 304 303 301 298 291
222 230 251 270 278 284 126 142 180 284 340 351 308 306 308 313 309 315 320 319 318 318 317 316 315 315 318 320 319 314 312 311 312 311 309 310 310 308 306 306 306 304 301 295
267 267 255 269 274 289 139 164 241 314 331 302 299 300 305 307 309 311 314 316 317 319 320 320 318 317 319 321 319 315 312 313 313 311 310 311 313 312 312 312 310 309 307 303
248 282 289 269 290 79 183 212 246 282 282 288 289 300 307 308 311 315 316 317 319 320 321 320 319 318 320 324 324 316 314 315 314 313 311 312 315 314 315 316 317 318 316 309
228 209 257 264 272 249 225 233 245 249 260 272 275 292 304 308 312 316 318 318 320 321 321 322 321 320 322 324 322 317 316 317 316 314 314 314 316 317 320 320 322 323 321 317
289 235 254 261 273 266 237 232 238 236 237 244 253 278 299 306 310 316 316 318 320 320 321 321 320 320 321 323 322 321 322 322 319 315 314 315 318 319 318 322 329 329 336 341
259 246 251 267 272 247 245 204 210 218 225 234 250 274 291 300 307 312 314 317 318 320 321 320 322 322 323 323 322 323 326 324 320 317 316 317 319 319 319 324 332 351 321 356
Height
1503 1499 1495 1494 1493 1495 1495 1495 1499 1508 1512 1512 1519 1526 1529 1531 1531 1532 1533 1533 1533 1533 1533 1532 1531 1530 1528 1526 1524 1522 1520 1518 1515 1513 1511 1508 1506 1503 1500 1497 1493 1490 1487 1486
1499 1498 1496 1496 1495 1496 1495 1497 1501 1510 1513 1513 1519 1525 1528 1530 1532 1533 1533 1534 1534 1534 1534 1533 1532 1531 1529 1527 1525 1523 1520 1518 1515 1513 1510 1508 1504 1502 1499 1496 1492 1490 1488 1486
1498 1497 1497 1496 1494 1495 1493 1494 1497 1506 1513 1512 1515 1523 1525 1529 1531 1533 1534 1535 1535 1535 1534 1534 1533 1531 1529 1527 1525 1522 1519 1517 1514 1512 1510 1507 1504 1502 1499 1495 1492 1489 1487 1485
1496 1496 1497 1495 1494 1493 1495 1491 1494 1502 1509 1508 1510 1518 1521 1523 1527 1531 1533 1534 1534 1535 1534 1533 1532 1530 1528 1526 1524 1521 1518 1515 1513 1510 1508 1506 1503 1500 1497 1494 1491 1488 1486 1484
1497 1497 1497 1497 1495 1493 1494 1493 1494 1498 1500 1504 1507 1510 1520 1521 1523 1527 1530 1532 1533 1533 1533 1532 1530 1529 1526 1524 1521 1519 1515 1513 1510 1507 1505 1502 1501 1498 1496 1493 1490 1487 1485 1482
1498 1498 1497 1496 1495 1495 1495 1495 1496 1495 1494 1509 1505 1510 1523 1518 1521 1524 1528 1531 1532 1532 1531 1530 1528 1527 1524 1522 1519 1516 1512 1509 1507 1504 1501 1499 1496 1494 1492 1490 1488 1485 1483 1481
1499 1497 1497 1496 1493 1493 1494 1498 1505 1509 1508 1509 1504 1509 1523 1520 1523 1525 1526 1529 1530 1530 1529 1528 1526 1524 1521 1519 1516 1513 1509 1506 1503 1500 1497 1495 1492 1489 1487 1486 1484 1482 1480 1479
1504 1505 1500 1498 1497 1496 1495 1495 1507 1515 1510 1505 1506 1513 1522 1523 1525 1526 1527 1527 1528 1528 1527 1526 1524 1521 1519 1516 1512 1509 1505 1502 1499 1496 1493 1490 1487 1485 1484 1481 1479 1478 1476 1475
1503 1506 1501 1501 1499 1497 1495 1494 1493 1499 1500 1506 1508 1515 1523 1524 1524 1525 1525 1526 1526 1526 1525 1523 1521 1518 1515 1512 1509 1505 1501 1497 1494 1491 1487 1484 1482 1479 1477 1475 1473 1472 1470 1469
1501 1506 1501 1501 1497 1501 1498 1498 1497 1501 1515 1516 1509 1510 1516 1519 1520 1521 1523 1524 1524 1524 1522 1520 1518 1515 1512 1509 1505 1501 1497 1493 1489 1485 1482 1479 1476 1473 1470 1468 1466 1464 1462 1461
1501 1505 1504 1502 1507 1507 1502 1503 1502 1501 1507 1516 1517 1512 1512 1517 1519 1520 1521 1522 1522 1521 1519 1517 1514 1511 1508 1504 1500 1496 1492 1487 1483 1479 1475 1471 1468 1466 1463 1460 1458 1456 1454 1453
1506 1502 1507 1509 1510 1507 1506 1508 1506 1512 1516 1513 1514 1513 1514 1517 1519 1521 1521 1521 1520 1519 1516 1513 1510 1507 1503 1499 1495 1491 1487 1482 1478 1474 1469 1465 1461 1458 1455 1453 1450 1448 1446 1444
1507 1509 1514 1514 1514 1509 1509 1511 1509 1510 1512 1513 1516 1514 1515 1516 1518 1519 1519 1519 1517 1515 1513 1510 1507 1503 1499 1495 1491 1486 1482 1477 1473 1468 1464 1459 1455 1452 1448 1445 1442 1439 1437 1435
1510 1509 1512 1515 1513 1509 1513 1514 1512 1511 1511 1515 1514 1514 1509 1511 1514 1516 1517 1517 1515 1512 1510 1507 1503 1499 1495 1491 1486 1481 1477 1472 1467 1463 1458 1454 1450 1446 1441 1437 1434 1431 1428 1426
1509 1510 1511 1511 1511 1510 1512 1515 1516 1516 1517 1517 1516 1514 1510 1511 1514 1516 1516 1514 1511 1509 1506 1503 1499 1495 1491 1486 1481 1476 1471 1467 1462 1457 1452 1448 1443 1439 1435 1430 1427 1423 1420 1417
1509 1511 1512 1514 1513 1513 1515 1515 1517 1517 1516 1515 1514 1511 1509 1514 1515 1514 1513 1511 1508 1506 1503 1499 1495 1491 1486 1481 1476 1471 1466 1461 1456 1451 1447 1442 1437 1432 1428 1423 1419 1415 1411 1408
1507 1512 1515 1511 1512 1515 1515 1511 1514 1514 1512 1514 1514 1511 1510 1511 1512 1512 1510 1508 1506 1503 1500 1495 1491 1486 1482 1477 1472 1466 1461 1456 1451 1446 1441 1436 1431 1426 1421 1416 1412 1407 1403 1400
1510 1511 1511 1509 1517 1524 1509 1506 1510 1513 1511 1509 1509 1509 1510 1511 1511 1509 1507 1506 1503 1500 1496 1491 1487 1482 1477 1472 1467 1462 1456 1451 1446 1441 1436 1430 1425 1419 1414 1409 1403 1399 1394 1391
1510 1511 1509 1509 1510 1505 1505 1508 1510 1511 1508 1506 1508 1508 1509 1508 1508 1502 1504 1504 1501 1497 1492 1488 1483 1478 1473 1468 1463 1457 1451 1446 1441 1436 1430 1425 1419 1412 1406 1401 1395 1390 1386 1382
1510 1510 1508 1508 1516 1515 1502 1505 1510 1512 1507 1505 1507 1508 1507 1507 1502 1500 1502 1500 1496 1492 1488 1483 1478 1474 1469 1464 1458 1452 1447 1441 1436 1430 1425 1419 1413 1406 1400 1394 1388 1383 1378 1374
1506 1507 1506 1505 1508 1497 1499 1506 1510 1510 1506 1506 1506 1506 1506 1505 1504 1502 1499 1496 1492 1488 1484 1479 1474 1470 1465 1459 1454 1448 1442 1437 1431 1425 1419 1413 1407 1401 1395 1389 1383 1377 1372 1367
1500 1499 1503 1504 1507 1502 1501 1504 1504 1503 1504 1504 1505 1505 1504 1504 1502 1499 1496 1493 1489 1484 1479 1475 1470 1465 1460 1455 1450 1443 1438 1432 1426 1420 1414 1409 1403 1397 1391 1384 1379 1373 1368 1363
1497 1495 1493 1496 1497 1498 1499 1499 1500 1501 1502 1502 1502 1502 1502 1500 1499 1496 1493 1489 1485 1480 1476 1471 1466 1461 1456 1451 1446 1439 1433 1427 1421 1415 1410 1404 1399 1393 1387 1381 1375 1370 1365 1361
1492 1498 1496 1495 1490 1494 1496 1497 1498 1498 1499 1499 1499 1499 1499 1497 1495 1492 1489 1485 1481 1476 1472 1467 1462 1457 1452 1447 1441 1435 1429 1423 1417 1411 1406 1401 1395 1390 1384 1378 1373 1368 1363 1360
1490 1493 1492 1492 1490 1491 1492 1493 1494 1494 1495 1496 1496 1496 1495 1494 1492 1489 1486 1482 1478 1473 1468 1464 1459 1453 1448 1442 1436 1431 1425 1419 1413 1408 1403 1398 1393 1387 1381 1377 1372 1367 1362 1359
1486 1487 1488 1486 1484 1486 1486 1488 1489 1490 1491 1492 1493 1493 1492 1491 1489 1486 1483 1479 1474 1470 1465 1460 1455 1449 1444 1438 1432 1427 1421 1415 1410 1404 1399 1395 1390 1385 1380 1375 1371 1366 1362 1358